{"data":{"norad_id":52637,"epoch":"2026-05-24T18:51:40.680000Z","epoch_age_seconds":90569,"freshness":"FRESH","line1":"1 52637U 22052AR  26144.78588750 -.00000564  00000+0 -17334-4 0  9997","line2":"2 52637  53.2161 277.5090 0001340  91.6468 268.4678 15.08836557223427","mean_motion":15.08836557,"eccentricity":0.000134,"inclination_deg":53.2161,"raan_deg":277.509,"arg_perigee_deg":91.6468,"mean_anomaly_deg":268.4678,"bstar":-1.7334e-5,"rev_number":22342,"period_min":95.437772455827,"perigee_km":538.8269154754,"apogee_km":540.68091024005,"semimajor_km":6917.8909128577,"source":"CELESTRAK","updated_at":"2026-05-25T13:38:17.205395Z"}}